Terminal Aerodrome Forecast
Issued by NWS

Home | Current Version | Previous Version | Text Only | Print | Product List | Glossary On
Versions: 1 2 3 4 5 6 7 8 9 10 11 12 13 14 15 16 17 18 19 20 21 22 23 24 25 26 27 28 29 30 31 32 33 34 35 36 37 38 39 40
000
FTUS41 KALY 191523 AAB
TAFPSF
TAF AMD
KPSF 191523Z 1915/2012 33005KT P6SM SCT010 OVC045
      TEMPO 1918/1921 3SM -RASN BR OVC025
     FM192300 29012KT P6SM VCSH OVC050=

USA.gov is the U.S. government's official web portal to all federal, state and local government web resources and services.